Regional Weather Roundup
Issued by NWS Charleston, SC

Current Version | Previous Version | Text Only | Print | Product List | Glossary Off
Versions: 1 2 3 4 5 6 7 8 9 10 11 12 13 14 15 16 17 18 19 20 21 22 23 24 25 26 27 28 29 30 31 32 33 34 35 36 37 38 39 40 41 42 43 44 45 46 47 48 49 50

684
ASUS42 KCHS 192212
RWRCHS

REGIONAL WEATHER ROUNDUP
NATIONAL WEATHER SERVICE CHARLESTON SC
600 PM EDT SAT AUG 19 2017

NOTE: "FAIR" INDICATES FEW OR NO CLOUDS BELOW 12,000 FEET WITH NO
SIGNIFICANT WEATHER AND/OR OBSTRUCTIONS TO VISIBILITY.

NOT ALL STATIONS ARE QUALITY CONTROLLED. USE DATA WITH CAUTION...
ESPECIALLY DEWPOINT OBSERVATIONS.

SCZ027-030-031-034>040-042>050-192300-
...SOUTHEAST SOUTH CAROLINA...

CITY           SKY/WX    TMP DP  RH WIND       PRES   REMARKS
N CHARLESTON   MOSUNNY   91  77  63 S8        29.91R HX 104
WATERFRONT PRK   N/A    N/A N/A N/A S12       29.76R
JOHNS ISLAND   FAIR      88  81  79 S9        29.93R HX 105
PINOPOLIS        N/A     91  73  55 W5        29.84R HX 100
MONCKS CORNER  FAIR      91  64  40 NW3       29.92R HX  93
SUMMERVILLE    FAIR      91  70  49 W3        29.93R HX  97
BEAUFORT MCAS  SUNNY     92  79  65 VRB5      29.92R HX 108
BEAUFORT ARPT  FAIR      90  75  62 S9        29.92R HX 100
HILTON HEAD IS SUNNY     88  79  74 S12       29.93F HX 102
WALTERBORO     CLEAR     91  68  46 W5        29.93R HX  95
ALLENDALE      NOT AVBL

...SOUTHERN MIDLANDS AND PEE DEE...

CITY           SKY/WX    TMP DP  RH WIND       PRES   REMARKS
GEORGETOWN     FAIR      86  77  74 SW3       29.94R HX  97
KINGSTREE      FAIR      91  64  40 SW6       29.91S HX  93
ORANGEBURG     SUNNY     93  62  35 W6        29.92S HX  93
BARNWELL       FAIR      93  66  40 W6        29.93R HX  96
AIKEN          FAIR      90  66  45 SW6       29.97R HX  92
MANNING        FAIR      91  70  49 MISG      29.92S HX  97
COLUMBIA       MOSUNNY   96  65  35 W8        29.90R HX  98
SUMTER         MOSUNNY   95  61  32 S8        29.89R HX  95
FLORENCE       PTSUNNY   92  68  45 SW6       29.91S HX  96
MYRTLE BEACH   PTSUNNY   84  75  74 SW6       29.94S HX  92
N MYRTLE BEACH CLOUDY    79  76  90 NE3       29.94S

$$

GAZ063-065-086>088-099>101-113>116-118-119-134>141-150-192300-
...SOUTHEAST GEORGIA...

CITY           SKY/WX    TMP DP  RH WIND       PRES   REMARKS
SAVANNAH ARPT  MOSUNNY   94  67  41 SW3       29.91S HX  97
HUNTER AAF     MOSUNNY   88  78  71 S10       29.90R HX 101
FORT STEWART   CLOUDY    96  65  36 W6        29.89S HX  99
STATESBORO     SUNNY     93  58  30 W5        29.92S HX  92
SYLVANIA       PTCLDY    93  72  49 N3        29.93S HX 101
CLAXTON        FAIR      95  68  41 N3        29.92S HX  99

...CSRA...CENTRAL AND FAR SOUTHEAST GEORGIA...

CITY           SKY/WX    TMP DP  RH WIND       PRES   REMARKS
THOMSON        SUNNY     89  67  47 N5        29.99S HX  92
AUGUSTA-BUSH   SUNNY     94  66  39 W5        29.91S HX  97
AUGUSTA-DANIEL SUNNY     93  62  35 VRB6      29.94S HX  93
SWAINSBORO     FAIR      93  63  36 W5        29.94S HX  94
VIDALIA        SUNNY     95  64  36 W5        29.93S HX  97
EASTMAN        FAIR      94  43  17 N3        29.96S HX  90
HAZLEHURST     FAIR      96  35  11 NW3       29.92S HX  91
ALMA           SUNNY     95  64  35 W7        29.92S HX  97
WAYCROSS       PTSUNNY   95  63  34 N7        29.91F HX  96
JESUP          FAIR      97  64  34 CALM      29.91F HX  99
BAXLEY         FAIR      93  61  33 N5        29.92S HX  93
BRUNSWICK      TSTM      77  72  83 S12       29.94F VSB 3/4
SAINT SIMONS   CLOUDY    85  68  56 NW5       29.95R THUNDER

$$

SCZ027-028-034-036>038-045-046-048>050-GAZ119-141-192300-
...LAKE AND SUPPLEMENTAL COASTAL OBSERVATIONS...

STATION/POSITION TIME  TEMP    WIND        PRES    WAVE   SWELL
                       AIR SEA DIR/SP/G            HT/PER HT/PER/DIR
                 (UTC) (F)     (DEG/KT/KT) (MB)    (FT/S) (FT/S/D)
WINYAH BAY       2045   82     350/  5     1013.0
LAKE MURRAY      2120   90     220/  7/  9 1011.9R
ACE BASIN NERRS  2045   90     160/  2     1013.0
FORT PULASKI     2136   89 87  200/  8/ 12 1013.6R
SAPELO ISLAND    2100   83        CALM     1014.0

$$

ANZ835-935-AMZ111-154-330-350-352-354-370-450-454-472-192300-
...C-MAN AND BUOY OBSERVATIONS...

STATION/POSITION TIME  TEMP    WIND        PRES    WAVE   SWELL
                       AIR SEA DIR/SP/G            HT/PER HT/PER/DIR
                 (UTC) (F)     (DEG/KT/KT) (MB)    (FT/S) (FT/S/D)
BUOY 41004       2150   84 85  220/ 12/ 14 1013.6R   3/ 8   2/150/ 8
BUOY 41008       2050   84 86  190/ 10/ 12 1013.2    2/ 7   2/120/ 7
FOLLY BEACH CMAN 2100   86     200/ 13/ 16 1013.8S
CAPERS NEARSHORE 2108   83 86  220/ 14/ 17 1012.9R
FRIPP NEARSHORE  2108   85     200/ 14/ 17 1012.7F


STATION/POSITION TIME  TEMP    WIND        PRES    WAVE   SWELL
                       AIR SEA DIR/SP/G            HT/PER HT/PER/DIR
                 (UTC) (F)     (DEG/KT/KT) (MB)    (FT/S) (FT/S/D)
5E ST. MARYS GA  2130      86                N/A     2/ 8
FRYING PAN BUOY  2150   84 84  210/ 14/ 16 1013.7S   4/ 5   2/110/ 8
BUOY 41025       2150   79 84  280/ 19/ 25 1013.7F   3/ 7   2/180/ 7
CAPE LOOKOUT NC  2100   77     310/ 11/ 13 1014.6R
BUOY 41002       2150   84 85  190/ 12/ 14 1015.8S   4/ 9   3/100/ 9
BUOY 41010       2150   85 86  140/  6/  8 1014.9F   3/ 9   3/110/ 9
ST AUGUSTINE FL  2200   84 84  140/ 12/ 14 1014.0F


$$




USA.gov is the U.S. government's official web portal to all federal, state and local government web resources and services.